Location: ?
(35.4554°N, 139.3092°E)
Time: 21:44:35
(UTC+00:00)

ARIANE 5 R/B - Pass Details

Date: 21 April 2021
Orbit: 749 x 794 km, 98.7° (Epoch: 10 May)

Event Time Altitude Azimuth Distance (km) Brightness Sun altitude
Rises 18:10:29 0° 7° (N) 3,300 6.4 -21.4°
Reaches altitude 10° 18:12:51 10° 3° (N) 2,365 5.5 -21.0°
Maximum altitude 18:17:55 53° 287° (WNW) 967 2.7 -20.2°
Enters shadow 18:19:24 40° 238° (WSW) 1,152 2.9 -19.9°
